Location: Chassagnes
(44.4047°N, 4.1657°E)
Time: 12:44:01
(UTC+00:00)

Cosmos 1939 Rocket - Pass Details

Date: 27 October 2020
Orbit: 532 x 584 km, 97.4° (Epoch: 23 November)

Event Time Altitude Azimuth Distance (km) Brightness Sun altitude
Rises 16:58:21 0° 135° (SE) 2,734 6.1 -4.1°
Reaches altitude 10° 17:00:47 10° 122° (ESE) 1,834 5.1 -4.5°
Maximum altitude 17:03:58 24° 68° (ENE) 1,178 3.9 -5.1°
Drops below altitude 10° 17:07:08 10° 14° (NNE) 1,822 5.2 -5.6°
Sets 17:09:32 0° 1° (N) 2,711 6.2 -6.0°
